Date,TemperatureHighF,TemperatureAvgF,TemperatureLowF,DewpointHighF,DewpointAvgF,DewpointLowF,HumidityHigh,HumidityAvg,HumidityLow,PressureMaxIn,PressureMinIn,WindSpeedMaxMPH,WindSpeedAvgMPH,GustSpeedMaxMPH,PrecipitationSumIn
2012-1-1,47.7,41.4,37.2,41.3,36.8,28.7,99,84,66,30.02,29.53,20,9,31,0.03
2012-1-2,37.8,29.6,19.4,29.3,21.5,15.6,92,72,53,29.81,29.59,14,8,27,0.00
2012-1-3,19.2,11.3,5.8,16.2,5.9,0.5,89,79,71,30.23,29.81,10,5,27,0.00
2012-1-4,23.5,6.5,5.8,9.9,-54.5,-99.9,82,29,52,30.23,29.77,14,-570,27,0.00
2012-1-5,-200.0,0.0,200.0,-99.9,-99.9,-99.9,0,0,100,29.84,29.71,0,-999,27,0.00
2012-1-6,52.5,14.4,39.3,32.4,-59.8,-99.9,65,16,45,29.71,29.55,17,-684,27,0.00
2012-1-7,50.2,15.0,42.6,34.6,-57.0,-99.9,63,19,53,29.96,29.58,13,-666,27,0.00
2012-1-8,30.0,8.6,27.3,26.3,-63.0,-99.9,89,23,67,30.30,29.96,9,-696,27,0.00
2012-1-9,39.5,12.6,25.3,20.9,-57.0,-99.9,78,19,40,30.28,29.83,11,-636,27,0.00
2012-1-10,37.5,9.4,36.6,30.7,-67.3,-99.9,77,18,69,29.96,29.71,11,-745,27,0.00
2012-1-11,44.1,13.7,32.5,29.8,-56.4,-99.9,74,21,56,29.96,29.65,15,-658,27,0.00
2012-1-12,41.6,10.5,39.2,39.9,-64.1,-99.9,100,24,89,29.65,29.30,10,-740,27,0.01
2012-1-13,26.0,6.5,18.6,25.5,-62.2,-99.9,98,30,93,29.72,29.10,16,-679,21,0.00
2012-1-14,18.4,6.2,12.8,16.0,-58.7,-99.9,90,31,81,30.14,29.72,11,-635,16,0.00
2012-1-15,12.1,2.7,-3.3,6.3,-65.7,-99.9,84,27,76,30.58,30.14,5,-667,12,0.00
2012-1-16,29.1,8.3,9.5,16.1,-58.4,-99.9,77,24,54,30.55,29.94,18,-622,23,0.00
2012-1-17,41.1,10.4,37.2,39.8,-62.9,-99.9,96,25,89,29.94,29.27,17,-726,19,0.21
2012-1-18,21.8,7.2,18.3,18.9,-59.6,-99.9,89,26,63,30.16,29.56,12,-638,21,0.00
2012-1-19,25.6,7.2,12.3,14.3,-63.6,-99.9,79,21,52,30.14,29.69,22,-670,30,0.00
2012-1-20,19.1,7.0,14.0,10.2,-53.6,-99.9,75,30,60,30.26,29.92,7,-570,13,0.00
2012-1-21,25.6,7.2,16.5,18.5,-60.7,-99.9,85,27,73,30.32,29.94,6,-658,13,0.04
2012-1-22,28.8,9.2,9.2,14.8,-55.3,-99.9,88,26,53,30.42,30.17,14,-600,27,0.00
2012-1-23,44.8,12.5,38.5,42.0,-58.7,-99.9,90,26,83,30.21,29.64,16,-698,28,0.01
2012-1-24,37.6,0.7,37.0,32.6,-97.5,-99.9,84,2,82,30.09,29.70,4,-981,27,0.00
2012-1-25,29.1,8.2,28.5,24.2,-64.8,-99.9,82,23,78,30.33,30.09,6,-714,27,0.00
2012-1-26,33.7,10.9,27.3,29.1,-55.5,-99.9,94,30,81,30.19,29.99,5,-649,27,0.00
2012-1-29,35.2,32.3,29.0,28.4,23.1,17.2,96,71,48,29.91,29.87,12,4,18,0.00
2012-1-30,30.4,26.8,24.4,27.7,18.7,12.6,95,72,49,30.24,29.91,12,5,19,0.01
2012-1-31,56.6,45.2,30.7,38.4,28.9,17.1,59,53,47,30.05,29.81,13,6,17,0.01
2012-2-1,54.1,46.6,36.5,45.7,36.7,30.0,89,69,49,30.03,29.75,16,9,21,0.07
2012-2-2,32.7,28.9,26.1,27.6,25.0,22.7,91,85,79,30.32,30.03,7,4,12,0.00
2012-2-3,34.7,31.3,27.3,29.2,24.8,19.5,91,77,72,30.46,30.30,8,2,14,0.00
2012-2-4,36.5,32.0,25.7,30.5,25.6,17.9,89,77,61,30.30,30.13,6,2,10,0.00
2012-2-5,31.2,27.1,23.9,22.7,17.8,14.1,79,68,61,30.19,30.11,4,0,8,0.00
2012-2-6,51.4,37.8,27.2,27.5,22.7,18.3,84,58,28,30.12,29.87,12,4,17,0.00
2012-2-7,37.9,32.1,27.0,31.5,27.1,18.2,93,82,63,30.26,29.92,7,3,10,0.00
2012-2-8,30.3,26.5,22.2,23.9,20.9,18.1,88,79,69,30.27,30.08,6,1,8,0.00
2012-2-9,41.6,30.7,21.9,23.6,18.5,15.6,85,62,37,30.12,30.03,5,1,11,0.00
2012-2-10,34.1,29.3,24.5,27.3,20.0,17.1,95,69,50,30.07,29.85,9,4,13,0.00
2012-2-11,30.3,21.9,11.7,26.7,19.2,7.1,96,89,77,29.89,29.69,13,3,19,0.02
2012-2-12,24.5,17.3,13.1,19.4,13.2,9.3,92,84,70,29.92,29.79,12,5,23,0.00
2012-2-13,37.2,30.1,23.8,21.3,15.6,6.1,73,56,36,29.96,29.88,10,5,16,0.01
2012-2-14,35.5,32.2,28.2,30.9,22.1,6.5,89,68,37,29.99,29.90,10,3,14,0.00
2012-2-15,36.0,34.5,33.1,33.3,31.3,29.0,96,88,78,30.20,29.96,6,1,10,0.04
2012-2-16,37.5,34.9,29.4,36.2,32.3,25.4,96,90,82,30.16,29.87,12,6,20,0.23
2012-2-17,40.1,36.1,29.8,36.6,27.8,21.5,96,73,50,30.02,29.88,12,5,28,0.00
2012-2-18,37.9,31.3,26.6,31.4,25.9,20.4,92,81,67,30.08,29.79,15,4,21,0.02
2012-2-19,30.9,28.8,26.6,28.6,23.6,19.1,92,81,65,30.10,30.03,9,4,18,0.00
2012-2-20,32.5,26.7,23.3,21.0,17.6,8.3,85,69,49,30.31,30.06,8,3,13,0.00
2012-2-21,38.8,31.6,21.1,30.0,20.5,14.5,89,64,45,30.30,29.68,25,9,29,0.00
2012-2-22,47.3,41.0,35.9,37.1,32.0,28.6,92,71,52,29.67,29.33,17,8,22,0.04
2012-2-23,41.2,35.2,31.6,33.7,30.1,27.4,97,83,61,29.70,29.33,9,2,16,0.03
2012-2-24,40.3,36.0,32.7,37.2,32.0,25.7,95,86,65,29.65,29.24,21,8,28,0.08
2012-2-25,34.4,29.2,24.8,26.7,21.5,9.7,94,74,46,30.10,29.33,20,12,31,0.00
2012-2-26,31.2,26.3,22.9,18.6,16.4,13.0,82,66,56,30.40,30.11,15,4,23,0.00
2012-2-27,50.8,37.1,27.3,28.1,22.2,16.9,68,55,39,30.29,29.94,14,7,21,0.00
2012-2-28,34.0,30.0,26.9,25.1,20.9,18.6,81,69,61,30.43,30.20,15,5,20,0.00
2012-2-29,36.2,32.3,27.9,34.9,27.2,20.4,96,82,58,30.31,29.58,11,6,18,0.09
2012-3-1,37.9,36.2,34.3,36.8,33.6,31.2,98,90,80,29.88,29.54,10,3,13,0.26
2012-3-2,44.2,38.1,33.8,36.1,33.0,30.6,93,82,66,29.93,29.47,18,8,23,0.20
2012-3-3,48.2,41.1,32.8,42.3,28.6,17.7,93,64,31,29.62,29.31,22,13,33,0.00
2012-3-4,32.9,28.1,19.1,27.0,21.4,14.7,94,77,56,29.78,29.58,11,5,15,0.02
2012-3-5,22.9,18.4,14.4,15.7,10.6,6.1,89,72,49,30.39,29.78,9,4,16,0.00
2012-3-6,38.2,24.5,15.4,19.5,14.2,8.3,84,66,42,30.55,30.39,14,4,21,0.01
2012-3-7,62.6,56.6,51.7,32.1,29.2,24.0,43,35,28,30.25,30.06,19,13,24,0.00
2012-3-8,58.0,51.1,32.9,51.5,40.5,31.5,97,70,41,30.06,29.67,23,13,33,0.24
2012-3-9,33.4,29.7,23.3,32.3,23.0,10.9,97,76,50,30.28,29.93,17,8,26,0.01
2012-3-10,33.7,26.1,18.6,19.1,15.5,11.7,85,66,44,30.54,30.28,15,6,27,0.01
2012-3-11,63.7,48.3,33.1,29.6,21.6,13.8,47,36,23,30.34,30.18,13,5,15,0.00
2012-3-12,63.5,54.6,44.2,38.1,29.7,22.1,50,39,27,30.22,29.93,12,3,16,0.00
2012-3-13,65.2,60.2,54.2,55.5,47.3,41.8,92,63,49,29.94,29.82,13,5,17,0.03
2012-3-14,58.4,48.8,37.0,43.7,32.6,24.0,89,57,27,30.13,29.94,8,2,19,0.03
2012-3-15,71.3,56.7,43.8,48.4,36.1,25.3,60,46,36,30.13,30.00,6,2,19,0.00
2012-3-16,62.7,54.4,48.2,56.3,49.7,42.7,97,85,60,30.17,29.97,11,3,19,0.20
2012-3-17,72.3,57.9,46.5,52.7,44.9,38.7,100,69,32,30.25,30.12,9,1,16,0.20
2012-3-18,75.8,63.3,54.5,57.6,51.4,41.1,94,67,41,30.17,30.01,11,3,15,0.04
2012-3-19,74.9,62.9,56.9,57.8,55.0,52.2,88,76,48,30.13,30.03,7,2,11,0.24
2012-3-20,72.8,63.5,54.7,58.9,54.9,51.9,94,75,52,30.21,30.10,18,4,23,0.24
2012-3-21,75.3,65.2,55.7,57.8,52.3,49.3,86,65,41,30.24,30.11,11,3,20,0.00
2012-3-22,75.3,63.7,54.4,57.2,53.6,51.5,91,71,46,30.16,30.02,8,1,11,0.00
2012-3-23,66.8,59.3,51.7,57.2,47.9,36.6,99,70,36,30.11,29.97,8,1,12,0.00
2012-3-24,60.4,56.4,50.1,44.4,38.4,33.7,72,52,37,29.97,29.84,11,4,19,0.02
2012-3-25,51.3,47.1,45.1,48.0,43.0,37.4,99,86,60,29.84,29.75,11,3,14,0.01
2012-3-26,47.6,34.3,28.2,47.1,20.9,5.3,99,60,31,30.23,29.75,17,9,27,0.01
2012-3-27,42.2,32.2,21.4,13.1,8.2,3.5,59,38,21,30.36,29.97,9,3,12,0.00
2012-3-28,70.8,51.7,42.1,46.4,31.3,9.6,94,49,26,29.96,29.44,16,7,22,0.05
2012-3-29,43.3,36.9,34.4,41.6,33.8,28.2,97,88,76,30.04,29.64,11,5,14,0.11
2012-3-30,46.2,37.4,29.8,33.6,25.2,19.9,95,63,38,30.09,29.84,7,2,11,0.14
2012-3-31,40.1,37.8,35.0,37.2,35.7,33.6,96,92,87,29.89,29.77,4,1,9,0.02
2012-4-1,39.3,36.8,35.3,36.2,34.9,33.4,98,93,84,29.88,29.64,7,1,18,0.28
2012-4-2,46.2,39.5,33.5,35.4,26.4,14.8,98,65,30,29.90,29.68,13,7,20,0.00
2012-4-3,50.8,41.3,31.2,30.6,23.9,17.5,82,52,28,29.99,29.75,7,2,18,0.00
2012-4-4,53.1,43.9,37.9,34.6,28.6,23.7,70,55,43,29.75,29.61,16,4,22,0.00
2012-4-5,39.1,35.6,30.0,29.7,25.5,21.4,82,67,51,29.99,29.74,10,4,18,0.00
2012-4-6,45.1,36.1,28.7,27.3,21.9,15.2,87,59,31,30.07,29.98,11,4,18,0.00
2012-4-7,49.9,40.9,31.0,26.0,19.4,10.3,76,46,22,30.15,30.02,13,4,18,0.00
2012-4-8,59.2,45.1,35.0,41.8,26.1,19.2,87,50,23,30.02,29.68,16,6,21,0.02
2012-4-9,51.4,44.3,37.6,34.5,24.9,18.2,73,48,27,29.72,29.59,18,10,33,0.00
2012-4-10,48.2,42.5,36.5,33.1,26.9,23.3,86,55,38,29.77,29.58,13,5,18,0.01
2012-4-11,43.5,38.1,33.7,36.8,33.7,31.5,95,85,67,29.99,29.75,11,5,18,0.08
2012-4-12,48.6,41.8,35.8,36.1,31.8,26.0,93,70,43,30.13,29.99,11,3,18,0.01
2012-4-13,57.2,44.6,33.2,32.1,28.4,24.7,81,56,30,30.22,30.11,7,2,18,0.00
2012-4-14,66.0,52.7,38.2,43.8,31.2,26.0,65,46,24,30.14,29.91,13,3,24,0.00
2012-4-15,67.3,58.6,51.7,59.6,54.2,44.0,94,86,64,29.92,29.81,11,3,18,0.01
2012-4-16,86.1,72.7,62.0,59.5,53.0,46.0,76,54,26,29.87,29.67,23,9,29,0.00
2012-4-17,62.9,50.4,37.9,47.6,36.1,27.7,68,58,44,30.27,29.87,13,5,28,0.00
2012-4-18,54.7,42.1,31.0,32.9,28.9,26.4,88,62,35,30.31,30.04,5,1,28,0.00
2012-4-19,71.6,55.8,42.5,47.3,34.9,27.8,64,47,31,30.04,29.86,9,2,28,0.00
2012-4-21,39.5,38.3,36.8,38.5,37.4,36.0,98,96,96,29.86,29.80,7,3,15,0.44
2012-4-22,39.9,37.6,34.6,37.5,36.5,33.4,99,96,89,29.87,29.61,9,4,18,0.16
2012-4-23,35.9,33.8,32.1,35.6,33.5,31.9,99,99,96,29.60,29.21,6,4,17,0.61
2012-4-24,43.8,38.3,33.8,36.0,32.9,30.0,99,82,60,29.58,29.21,17,8,24,0.01
2012-4-25,48.0,41.9,36.5,33.9,31.0,24.4,85,66,48,29.87,29.58,12,4,21,0.00
2012-4-26,62.9,45.6,34.4,48.2,36.7,29.5,95,73,45,29.85,29.47,13,4,21,0.20
2012-4-27,41.8,35.5,31.6,37.3,28.6,23.5,95,76,60,30.15,29.68,9,5,24,0.05
2012-4-28,47.7,37.4,27.0,28.5,25.0,18.5,88,63,40,30.25,30.11,6,2,24,0.00
2012-4-29,50.5,40.5,29.3,26.1,20.0,14.5,70,46,27,30.23,30.14,13,3,24,0.00
2012-4-30,60.4,47.1,31.6,45.3,26.0,16.0,80,47,23,30.29,29.93,13,3,24,0.13
2012-5-1,57.6,52.8,48.0,53.8,49.8,45.3,99,90,80,30.03,29.83,6,2,24,0.07
2012-5-2,69.8,58.5,47.6,61.0,54.3,46.0,95,86,72,30.03,29.90,8,1,12,0.16
2012-5-3,81.6,67.5,57.2,63.4,58.6,53.4,97,76,39,30.00,29.81,17,1,20,0.01
2012-5-4,73.5,65.7,58.3,63.5,61.4,56.3,99,87,68,29.89,29.80,10,2,15,0.01
2012-5-5,59.9,53.3,48.0,56.1,48.5,40.5,98,84,68,30.04,29.87,7,1,12,0.00
2012-5-6,66.3,53.8,40.1,45.5,40.3,34.9,96,64,38,30.06,30.00,6,1,11,0.00
2012-5-7,61.8,52.7,48.6,50.1,42.0,36.9,74,67,58,30.01,29.97,8,1,13,0.00
2012-5-8,61.6,57.1,52.0,59.3,55.6,49.9,98,95,90,29.76,29.68,0,0,10,0.61
2012-5-9,65.8,58.9,50.2,58.4,51.7,42.2,99,80,43,29.71,29.58,0,0,0,0.06
2012-5-10,50.8,47.8,44.1,49.9,46.1,39.1,97,94,82,29.61,29.53,0,0,0,0.01
2012-5-11,62.6,58.1,51.1,38.9,34.2,28.9,61,41,31,30.07,29.97,0,0,0,0.00
2012-5-12,76.5,62.2,46.2,45.7,41.0,37.1,71,48,28,30.16,30.07,0,0,0,0.00
2012-5-13,72.5,63.2,54.7,55.3,50.1,42.8,84,63,51,30.13,30.02,0,0,0,0.00
2012-5-14,65.8,59.6,55.7,58.4,55.9,52.4,96,88,74,30.06,29.96,0,0,0,0.03
2012-5-15,74.9,63.9,58.1,60.3,58.7,54.8,99,85,55,29.98,29.82,0,0,0,0.02
2012-5-16,75.4,61.4,48.0,59.5,53.2,36.8,98,77,42,30.00,29.72,0,0,0,0.01
2012-5-17,59.5,50.1,40.2,39.5,35.5,27.9,89,60,32,30.15,30.00,0,0,0,0.00
2012-5-18,72.5,56.5,40.1,43.7,36.1,28.7,88,52,20,30.19,30.06,0,0,0,0.00
2012-5-19,81.4,67.4,50.4,50.9,45.1,40.0,76,48,27,30.11,30.04,0,0,0,0.00
2012-5-20,84.9,72.1,55.4,55.6,50.9,46.2,81,51,27,30.16,30.04,0,0,0,0.00
2012-5-21,75.3,67.3,58.7,61.4,54.1,40.6,91,64,42,30.08,29.89,0,0,0,0.00
2012-5-22,76.5,66.5,60.5,63.4,60.5,57.9,96,82,53,29.89,29.73,0,0,0,0.00
2012-5-23,76.5,65.4,59.2,62.3,60.1,57.1,100,85,52,29.92,29.80,0,0,0,0.00
2012-5-24,78.5,69.2,62.0,64.7,61.8,56.9,97,79,55,30.02,29.91,0,0,0,0.00
2012-5-25,82.0,72.8,64.5,66.4,63.1,58.5,88,73,53,30.02,29.92,0,0,0,0.00
2012-5-26,79.2,71.9,62.4,65.2,53.9,45.7,86,55,33,30.11,29.95,0,0,0,0.00
2012-5-27,80.7,69.2,56.9,60.1,52.6,46.2,83,58,34,30.11,29.88,0,0,0,0.00
2012-5-28,87.8,74.6,61.3,70.9,64.8,58.8,93,73,52,29.92,29.74,0,0,0,0.07
2012-5-29,87.6,73.7,65.6,70.0,67.5,63.9,96,82,50,29.74,29.55,0,0,0,0.43
2012-5-30,74.2,66.9,56.7,64.4,57.7,47.8,96,75,51,29.73,29.64,0,0,0,0.00
2012-5-31,65.0,58.1,52.6,51.8,48.5,44.2,93,72,50,29.94,29.73,0,0,0,0.00
2012-6-1,65.0,57.9,49.2,57.9,52.1,46.2,94,81,66,29.95,29.58,0,0,0,0.07
2012-6-2,63.9,59.0,55.4,58.4,50.1,43.8,98,74,51,29.69,29.56,0,0,0,0.04
2012-6-3,61.8,56.5,54.4,55.5,51.3,46.2,97,83,69,29.68,29.59,0,0,0,0.12
2012-6-4,58.9,54.1,51.0,55.7,52.6,49.6,99,95,83,29.80,29.57,0,0,0,0.14
2012-6-5,64.2,55.3,48.2,51.9,49.5,46.6,97,82,59,29.92,29.80,0,0,0,0.00
2012-6-6,70.9,59.7,47.6,53.4,49.1,43.8,99,72,39,29.93,29.86,0,0,0,0.00
2012-6-7,73.2,61.1,49.2,54.7,50.7,47.6,97,72,41,29.95,29.85,0,0,0,0.00
2012-6-8,76.0,66.0,53.8,54.8,51.6,48.5,89,62,42,29.89,29.77,0,0,0,0.00
2012-6-9,71.8,65.4,59.2,63.6,58.7,49.5,98,80,53,29.91,29.78,0,0,0,0.53
2012-6-10,84.7,73.4,63.1,66.7,62.7,59.6,95,72,46,30.02,29.91,0,0,0,0.01
2012-6-11,84.5,75.5,67.4,67.4,64.7,61.1,90,71,48,30.04,29.94,0,0,0,0.00
2012-6-12,70.6,66.4,62.9,66.7,64.3,57.0,98,93,80,29.94,29.74,0,0,0,0.64
2012-6-13,66.3,58.8,52.0,55.6,51.2,47.3,90,76,59,30.13,29.87,0,0,0,0.00
2012-6-14,75.8,62.6,48.9,55.9,52.3,48.1,99,72,43,30.22,30.13,0,0,0,0.00
2012-6-15,80.5,68.6,56.7,59.1,54.6,49.3,88,63,41,30.24,30.14,0,0,0,0.00
2012-6-16,81.4,71.3,61.3,61.9,58.3,54.9,89,66,43,30.23,30.06,0,0,0,0.00
2012-6-17,77.6,69.4,61.8,59.1,56.2,52.4,83,64,46,30.07,29.88,0,0,0,0.00
2012-6-18,68.3,65.0,61.5,61.0,58.3,54.4,84,79,67,29.98,29.89,0,0,0,0.00
2012-6-19,83.8,72.0,62.3,74.8,66.7,59.3,99,84,67,30.03,29.92,0,0,0,1.01
2012-6-20,91.2,80.6,70.1,71.3,69.0,64.3,95,70,46,30.00,29.89,0,0,0,0.00
2012-6-21,90.1,80.2,69.8,69.0,66.0,62.5,84,64,41,29.90,29.70,0,0,0,0.00
2012-6-22,77.7,71.6,63.5,67.4,61.6,55.4,89,72,48,29.83,29.72,0,0,0,0.00
2012-6-23,75.6,66.9,57.5,59.1,56.1,52.5,90,69,49,29.97,29.83,0,0,0,0.00
2012-6-24,78.5,67.7,55.9,62.9,57.3,52.0,95,73,41,29.98,29.76,0,0,0,0.00
2012-6-25,65.0,61.8,53.6,60.9,54.6,48.1,97,78,59,29.80,29.70,0,0,0,0.09
2012-6-26,69.1,60.0,53.1,53.6,49.7,43.1,96,72,42,29.79,29.71,0,0,0,0.00
2012-6-27,75.8,64.8,56.2,55.9,52.0,45.8,91,66,35,29.79,29.70,0,0,0,0.00
2012-6-28,84.7,72.0,58.1,64.4,57.1,51.8,83,62,38,29.78,29.60,0,0,0,0.00
2012-6-29,87.2,78.5,71.6,66.3,59.3,48.0,76,55,26,29.64,29.55,0,0,0,0.00
2012-6-30,86.7,76.3,64.7,63.6,58.0,52.4,86,57,33,29.71,29.61,0,0,0,0.00
2012-7-1,83.4,74.0,64.8,63.8,56.6,47.8,87,57,30,29.82,29.70,0,0,0,0.00
2012-7-2,81.1,71.1,62.4,60.8,57.2,52.2,87,64,38,29.93,29.82,0,0,0,0.00
2012-7-3,85.5,71.6,60.2,68.9,59.7,52.1,92,70,32,29.90,29.72,0,0,0,0.06
2012-7-4,89.5,77.9,67.8,72.3,67.9,65.3,95,74,47,29.78,29.65,0,0,0,0.00
2012-7-5,81.2,72.9,61.2,71.8,59.6,43.4,91,67,27,29.85,29.69,0,0,0,0.00
2012-7-6,91.2,75.6,57.5,72.4,62.5,53.3,93,66,43,29.89,29.79,0,0,0,0.00
2012-7-7,78.6,71.2,66.4,69.5,65.6,60.1,95,83,68,29.90,29.77,0,0,0,0.18
2012-7-8,80.3,68.7,62.1,66.8,57.9,-99.9,99,75,47,29.87,29.82,0,-24,0,0.00
2012-7-9,77.4,23.2,73.5,51.7,-54.5,-99.9,45,12,33,29.97,29.85,0,-693,0,0.00
2012-7-10,80.3,43.1,57.0,56.3,-10.5,-99.9,85,29,37,30.02,29.92,0,-416,0,0.00
2012-7-11,85.5,45.1,54.5,60.1,-12.1,-99.9,92,26,25,30.12,30.01,0,-415,0,0.00
2012-7-12,89.9,46.0,66.6,65.5,-9.9,-99.9,80,28,33,30.09,29.98,0,-438,0,0.00
2012-7-13,89.3,39.0,68.8,65.5,-19.8,-99.9,80,29,38,30.11,30.03,0,-509,0,0.00
2012-7-14,86.5,45.3,68.8,63.0,-8.8,-99.9,77,30,38,30.13,29.97,0,-432,0,0.00
2012-7-15,77.7,48.6,70.6,72.8,11.4,-99.9,96,57,74,30.03,29.85,0,-346,0,0.32
2012-7-16,83.8,74.3,67.3,70.6,66.7,62.5,99,80,52,29.87,29.77,0,0,0,0.00
2012-7-17,93.2,81.8,70.1,66.0,62.1,58.1,77,53,33,29.79,29.62,0,0,0,0.00
2012-7-18,83.6,75.2,65.5,71.2,64.9,59.2,93,72,50,29.88,29.67,0,0,0,0.00
2012-7-19,79.2,68.3,59.8,65.7,59.8,52.4,96,76,50,29.93,29.87,0,0,0,0.06
2012-7-20,69.6,64.4,59.9,64.8,62.0,59.0,97,92,79,30.01,29.89,0,0,0,0.15
2012-7-21,78.8,68.8,59.2,63.0,59.5,54.1,100,75,43,30.05,29.95,0,0,0,0.00
2012-7-22,82.0,71.9,62.1,68.0,62.1,55.8,94,73,41,30.05,29.96,0,0,0,0.34
2012-7-23,90.1,80.7,69.1,71.4,66.9,63.2,93,66,41,29.97,29.60,0,0,0,0.04
2012-7-24,80.5,76.0,70.9,69.2,64.8,50.6,87,69,48,29.73,29.61,0,0,0,0.00
2012-7-25,72.1,71.6,71.1,57.0,56.4,56.0,60,59,58,29.70,29.67,0,0,0,0.00
2012-7-26,81.1,70.4,63.4,71.0,66.0,56.0,96,87,58,29.69,29.53,0,0,0,0.27
2012-7-27,77.7,71.3,66.1,68.5,66.2,63.4,99,85,62,29.84,29.57,0,0,0,0.18
2012-7-28,78.5,68.9,63.1,69.6,65.0,62.3,100,88,65,29.90,29.83,0,0,0,0.57
2012-7-29,80.1,71.7,62.0,66.2,59.9,52.5,98,70,41,29.99,29.89,0,0,0,0.00
2012-7-30,84.3,71.6,58.9,64.4,58.0,52.9,86,65,36,30.00,29.91,0,0,0,0.00
2012-7-31,80.9,71.5,64.7,69.6,65.9,62.7,99,83,63,29.93,29.77,0,0,0,0.35
2012-8-1,79.0,69.9,62.6,68.1,65.3,61.2,98,86,67,29.80,29.75,0,0,0,0.00
2012-8-2,84.0,73.5,61.0,66.6,63.4,58.5,100,74,46,29.84,29.78,0,0,0,0.00
2012-8-3,87.6,75.8,67.8,68.7,64.4,60.7,83,69,47,29.98,29.81,0,0,0,0.00
2012-8-4,88.6,79.4,70.8,73.5,68.0,63.6,89,70,45,30.04,29.96,0,0,0,0.00
2012-8-5,80.3,75.2,70.6,74.3,71.0,68.5,98,87,79,29.98,29.80,0,0,0,0.40
2012-8-6,73.9,67.5,59.3,69.1,59.1,54.6,92,76,52,30.03,29.90,0,0,0,0.00
2012-8-7,83.2,68.8,56.2,60.9,55.5,46.5,96,68,31,29.98,29.86,0,0,0,0.00
2012-8-8,87.6,73.6,61.8,67.7,60.3,51.0,87,66,34,29.90,29.83,0,0,0,0.00
2012-8-9,83.8,73.6,65.0,71.4,67.2,62.6,95,82,51,29.84,29.73,0,0,0,0.02
2012-8-10,74.9,71.0,67.1,69.1,67.0,64.9,99,87,75,29.72,29.63,7,1,11,0.21
2012-8-11,79.4,70.9,64.7,68.6,61.7,55.1,98,75,47,29.84,29.66,10,3,16,0.00
2012-8-12,75.6,66.5,59.9,65.2,60.5,56.7,93,82,60,29.90,29.81,7,2,15,0.01
2012-8-13,79.4,68.5,61.0,63.2,60.1,56.1,97,77,46,29.96,29.88,6,1,15,0.00
2012-8-14,78.8,68.9,63.4,66.9,62.2,58.4,100,81,53,29.89,29.74,7,1,15,0.40
2012-8-15,74.6,67.5,60.5,65.7,63.2,56.9,100,87,68,29.88,29.78,5,1,15,0.01
2012-8-16,79.6,67.3,56.0,63.4,57.3,52.4,99,74,40,29.92,29.78,4,1,15,0.00
2012-8-17,72.1,67.8,61.0,64.7,61.3,56.7,94,80,69,29.82,29.69,7,2,15,0.02
2012-8-18,70.6,62.5,54.8,60.4,52.0,43.3,96,72,41,29.93,29.81,7,1,15,0.00
2012-8-19,76.0,62.4,50.8,57.0,51.9,44.0,96,72,35,29.94,29.82,4,1,15,0.00
2012-8-20,74.2,63.9,57.0,59.2,56.1,51.9,94,77,47,29.91,29.80,9,1,15,0.00
2012-8-21,75.8,62.8,51.3,59.3,52.4,47.3,100,73,37,30.04,29.91,4,0,15,0.00
2012-8-22,80.7,67.0,54.1,58.9,53.7,48.2,90,65,38,30.09,30.01,5,0,15,0.00
2012-8-23,81.8,68.8,57.0,60.2,56.1,50.8,96,68,38,30.11,30.05,3,0,15,0.00
2012-8-24,87.2,72.3,59.8,63.2,58.1,53.4,91,65,35,30.12,30.06,3,0,15,0.00
2012-8-25,83.8,73.7,64.7,64.5,59.8,57.1,84,64,41,30.18,30.09,7,1,15,0.00
2012-8-26,83.4,73.1,63.5,63.3,60.0,54.8,88,66,44,30.21,30.07,12,2,21,0.00
2012-8-27,81.4,70.6,65.8,69.1,65.4,62.1,99,84,58,30.08,29.83,10,2,16,0.15
2012-8-28,76.1,68.8,61.3,67.6,62.9,54.8,100,83,52,29.91,29.77,8,2,15,0.98
2012-8-29,70.8,60.9,51.3,57.0,51.1,46.4,99,73,45,30.01,29.91,4,1,15,0.00
2012-8-30,79.4,65.0,49.8,58.2,52.1,48.4,96,67,36,30.06,29.96,8,2,15,0.00
2012-8-31,90.1,75.1,59.2,66.0,56.1,50.8,78,54,32,29.97,29.80,10,3,15,0.00
2012-9-1,80.5,71.4,59.9,66.8,57.2,47.8,92,65,33,30.03,29.88,6,2,15,0.00
2012-9-2,83.4,69.1,55.4,61.9,53.9,48.9,94,63,32,30.03,29.94,3,0,15,0.00
2012-9-3,73.5,68.6,64.3,67.2,63.2,52.5,94,83,60,30.01,29.95,5,0,15,0.00
2012-9-4,77.2,71.0,67.4,71.2,68.5,65.0,99,92,80,29.95,29.67,10,2,15,0.60
2012-9-5,78.1,68.9,64.2,68.6,64.6,62.1,100,87,62,29.81,29.68,4,1,15,0.00
2012-9-6,82.4,69.8,62.9,68.7,64.0,60.5,98,83,55,29.84,29.75,6,1,15,0.05
2012-9-7,79.6,70.7,62.1,68.2,63.7,60.6,100,80,54,29.87,29.68,4,0,15,0.00
2012-9-8,73.9,66.5,55.0,67.9,62.0,52.4,96,86,70,29.72,29.43,17,4,23,0.27
2012-9-9,67.8,57.7,50.5,56.3,51.3,44.7,99,81,49,29.92,29.72,7,1,15,0.00
2012-9-10,62.6,54.9,48.8,50.8,45.6,39.5,96,74,44,30.10,29.92,9,2,18,0.00
2012-9-11,72.5,62.2,46.0,48.4,44.9,41.0,91,56,34,30.22,30.10,3,1,15,0.00
2012-9-12,78.1,64.9,53.1,56.0,51.3,46.0,87,64,36,30.27,30.18,10,2,15,0.00
2012-9-13,81.1,69.0,58.0,59.5,55.3,50.8,82,63,41,30.25,30.15,9,1,15,0.00
2012-9-14,79.0,66.9,56.0,62.1,58.3,54.3,96,76,51,30.16,29.95,12,3,21,0.31
2012-9-15,63.7,56.9,51.7,54.5,50.7,47.9,96,81,57,30.16,30.08,6,1,15,0.00
2012-9-16,67.6,57.0,49.1,53.0,50.0,46.2,98,79,52,30.10,29.99,4,1,15,0.00
2012-9-17,73.2,62.5,52.2,55.8,50.3,46.4,89,67,40,30.03,29.84,12,2,20,0.00
2012-9-18,70.1,62.8,52.9,66.7,60.1,48.5,98,91,68,29.84,29.37,16,2,28,1.03
2012-9-19,59.2,51.7,46.2,48.4,45.6,42.4,95,80,60,30.15,29.74,7,1,15,0.01
2012-9-20,66.9,55.3,43.9,48.8,45.0,40.9,91,70,47,30.14,29.95,14,4,25,0.00
2012-9-21,69.6,61.9,56.6,60.4,55.3,49.1,92,79,69,29.95,29.83,9,2,15,0.01
2012-9-22,68.3,58.2,49.5,59.3,52.3,46.4,92,81,68,29.89,29.66,12,3,24,0.34
2012-9-23,49.4,47.8,46.4,47.2,46.3,44.5,96,94,92,29.92,29.86,5,0,24,0.00
2012-9-24,58.0,51.7,48.3,40.9,39.2,37.7,72,63,47,30.01,29.99,6,2,0,0.00
2012-9-25,67.6,58.5,50.7,51.8,46.2,37.7,89,66,42,29.99,29.92,11,4,0,0.07
2012-9-26,63.7,59.2,55.0,60.6,57.2,53.6,99,93,86,30.02,29.90,6,1,13,0.61
2012-9-27,63.1,55.3,47.9,56.1,47.1,42.3,96,75,54,30.18,30.02,4,1,12,0.00
2012-9-28,55.4,51.9,49.8,54.7,50.9,44.0,99,96,74,30.10,29.98,5,1,12,0.11
2012-9-29,60.7,53.1,49.4,50.5,47.6,41.0,99,84,49,29.98,29.86,7,2,12,0.00
2012-9-30,52.6,51.1,50.1,50.9,50.3,49.1,99,97,92,29.82,29.76,5,2,12,0.63
2012-10-1,62.0,54.9,49.6,52.7,50.3,47.5,98,85,70,29.89,29.73,6,2,12,0.00
2012-10-2,64.3,59.1,52.9,60.2,55.6,50.0,97,88,82,29.92,29.84,8,1,12,0.00
2012-10-3,71.3,64.7,60.7,66.6,63.3,59.8,100,95,85,30.05,29.87,2,0,7,0.00
2012-10-4,72.5,63.8,57.6,63.7,58.7,53.5,100,85,54,30.09,29.98,4,0,4,0.00
2012-10-5,72.5,62.7,55.3,61.4,56.6,51.2,89,81,65,30.00,29.79,6,1,9,0.00
2012-10-6,62.0,53.1,47.1,58.1,50.4,41.4,99,91,62,29.83,29.68,7,2,13,0.28
2012-10-8,51.3,45.7,37.0,39.5,35.9,25.9,98,70,41,30.22,30.17,5,2,10,0.00
2012-10-9,60.2,48.2,36.9,45.2,39.4,33.4,89,73,45,30.20,29.97,7,1,13,0.00
2012-10-10,55.6,49.8,44.5,48.8,44.1,36.7,93,81,60,29.97,29.72,16,4,23,0.02
2012-10-11,53.2,46.2,39.2,36.5,32.4,28.6,79,60,41,30.15,29.92,11,4,22,0.00
2012-10-12,50.1,41.9,32.8,42.4,31.8,23.6,94,69,47,30.40,29.97,10,4,15,0.09
2012-10-13,48.2,39.7,28.8,38.4,27.2,21.2,86,64,36,30.44,30.03,10,2,14,0.03
2012-10-14,70.3,57.2,44.6,57.4,49.3,37.9,92,76,61,30.03,29.67,18,5,26,0.09
2012-10-15,64.8,58.7,46.4,56.2,49.4,38.1,86,72,53,29.70,29.51,10,5,20,0.00
2012-10-16,50.1,44.3,37.6,40.2,36.9,34.1,92,76,56,29.89,29.70,8,3,18,0.00
2012-10-17,63.7,50.3,36.5,42.9,38.1,34.4,93,67,40,29.92,29.78,7,1,11,0.00
2012-10-18,63.1,56.3,49.8,50.8,45.5,40.2,86,68,50,29.82,29.73,15,3,27,0.00
2012-10-19,64.2,55.0,48.3,58.4,52.9,47.5,100,93,78,29.83,29.55,8,1,8,0.27
2012-10-20,56.7,51.4,45.7,55.2,44.3,37.5,96,78,51,29.73,29.55,12,3,15,0.04
2012-10-21,58.3,51.5,45.5,44.9,41.4,37.4,89,70,47,30.00,29.73,11,4,20,0.00
2012-10-22,61.6,51.7,42.3,47.4,43.9,41.2,98,77,52,30.07,30.00,7,1,11,0.00
2012-10-23,53.3,39.4,44.9,53.0,17.9,-99.9,99,75,82,30.06,29.98,2,-200,5,0.46
2012-10-24,54.7,1.0,53.9,54.7,-97.1,-99.9,100,2,100,30.06,29.99,0,-981,5,0.00
2012-10-25,70.1,25.8,56.9,60.7,-36.9,-99.9,100,32,71,30.09,30.00,9,-603,13,0.01
2012-10-26,66.8,27.4,59.2,58.1,-32.7,-99.9,87,33,71,30.06,29.98,9,-568,15,0.00
2012-10-27,56.6,15.9,49.1,54.8,-53.7,-99.9,100,30,92,30.03,29.88,1,-695,5,0.00
2012-10-28,44.8,12.1,44.1,44.8,-60.6,-99.9,100,27,100,29.96,29.77,9,-726,11,0.09
2012-10-29,44.8,0.4,44.8,44.8,-98.5,-99.9,100,1,100,29.79,29.28,0,-989,7,0.09
2012-10-30,46.5,43.7,41.3,42.8,41.4,40.0,96,92,84,29.37,29.24,4,1,7,0.08
2012-10-31,42.8,40.3,39.5,40.0,37.9,36.1,95,91,81,29.44,29.35,2,0,7,0.05
2012-11-1,44.5,41.9,40.1,43.8,40.8,38.3,99,96,89,29.56,29.41,0,0,7,0.38
2012-11-2,41.2,38.3,35.3,39.0,35.2,32.5,95,89,78,29.78,29.55,0,0,7,0.07
2012-11-3,37.6,35.5,34.1,35.7,33.8,31.9,98,94,85,30.00,29.78,0,0,7,0.09
2012-11-4,37.0,33.5,32.4,33.3,31.1,27.8,98,91,82,30.05,29.99,0,0,0,0.03
2012-11-5,33.2,32.2,31.3,30.7,27.7,23.9,94,84,72,30.16,30.01,0,0,0,0.02
2012-11-6,40.6,33.6,28.2,26.7,24.3,21.9,85,70,49,30.17,30.03,0,0,0,0.00
2012-11-7,36.6,31.2,24.7,24.8,21.1,17.9,82,67,49,30.07,29.98,0,0,0,0.00
2012-11-8,37.2,31.9,28.7,29.4,26.1,23.4,88,79,69,30.05,29.95,0,0,0,0.00
2012-11-9,46.2,38.1,29.1,38.8,32.6,23.7,92,81,63,30.15,30.01,0,0,0,0.00
2012-11-10,50.2,45.8,40.5,42.8,40.6,38.4,97,83,68,30.25,30.15,0,0,0,0.01
2012-11-11,68.1,57.4,49.1,45.3,39.9,36.4,68,53,38,30.29,30.20,0,0,0,0.00
2012-11-12,63.4,58.1,41.9,53.0,47.0,39.4,97,67,52,30.21,29.92,0,0,0,0.44
2012-11-13,41.6,36.2,34.4,40.3,30.4,23.9,97,80,64,30.47,30.13,0,0,0,0.25
2012-11-14,40.8,34.5,28.1,28.8,26.4,24.2,88,73,52,30.56,30.44,0,0,0,0.00
2012-11-15,44.1,34.0,26.6,29.3,25.7,23.7,94,73,46,30.44,30.28,0,0,0,0.00
2012-11-16,42.9,33.5,25.8,33.0,28.9,23.5,96,84,65,30.47,30.28,0,0,0,0.00
2012-11-17,47.6,34.9,26.3,38.6,30.2,25.6,99,84,53,30.62,30.47,0,0,0,0.00
2012-11-18,47.7,34.7,25.7,35.5,29.1,24.5,97,81,53,30.63,30.48,0,0,0,0.01
2012-11-19,50.2,38.7,31.5,34.4,29.4,27.0,85,70,45,30.48,30.19,0,0,0,0.00
2012-11-20,47.9,38.3,31.6,37.4,32.4,27.6,94,80,57,30.19,30.07,0,0,0,0.00
2012-11-21,51.6,38.3,30.6,40.3,33.7,29.7,99,85,55,30.21,30.10,0,0,0,0.00
2012-11-22,58.9,44.6,33.2,33.7,30.2,27.6,89,60,31,30.20,29.97,0,0,0,0.00
2012-11-23,51.9,45.4,35.8,42.6,32.5,24.5,78,61,51,29.97,29.61,0,0,0,0.01
2012-11-24,35.6,31.8,28.8,27.9,23.5,19.0,89,71,57,29.84,29.67,0,0,0,0.00
2012-11-25,32.7,30.8,29.5,28.9,23.5,18.1,92,74,61,29.86,29.77,0,0,0,0.00
2012-11-26,38.0,34.5,31.6,27.6,25.3,22.2,85,69,54,30.18,29.83,0,0,0,0.01
2012-11-27,38.2,33.4,30.9,26.4,23.1,17.9,83,67,45,30.24,30.17,0,0,0,0.00
2012-11-28,34.3,30.8,26.3,28.6,23.9,18.9,92,76,57,30.20,30.11,0,0,0,0.00
2012-11-29,44.6,35.8,28.1,27.9,23.0,19.1,86,61,41,30.24,30.15,0,0,0,0.00
2012-11-30,37.0,31.1,28.8,31.2,27.8,22.1,96,88,56,30.36,30.20,0,0,0,0.00
2012-12-1,43.2,38.1,29.8,38.3,34.5,27.5,93,87,82,30.35,30.23,0,0,0,0.03
2012-12-2,48.8,44.1,40.6,47.7,41.3,36.9,97,90,83,30.23,29.92,0,0,0,0.24
2012-12-3,53.6,47.4,42.6,49.9,43.8,40.4,98,88,74,30.19,30.01,0,0,0,0.00
2012-12-4,66.9,56.9,46.4,55.6,51.1,44.5,96,82,55,30.08,29.81,0,0,0,0.20
2012-12-5,46.2,35.6,27.5,44.6,29.6,17.3,95,79,65,30.30,29.90,0,0,0,0.16
2012-12-6,37.8,31.3,24.2,23.6,20.2,17.1,83,64,48,30.35,30.07,0,0,0,0.00
2012-12-7,36.9,35.0,32.5,36.1,29.6,18.5,98,82,52,30.07,29.92,0,0,0,0.21
2012-12-8,49.2,42.0,36.8,47.4,40.9,34.5,99,96,90,30.05,29.72,0,0,0,0.08
2012-12-9,40.8,36.9,32.4,39.5,32.2,29.6,95,83,72,30.23,29.82,0,0,0,0.04
2012-12-10,52.8,44.4,36.2,49.8,42.9,34.6,97,94,89,29.81,29.43,0,0,0,0.49
2012-12-11,36.0,31.0,27.8,34.4,28.5,25.8,95,90,80,30.15,29.63,0,0,0,0.01
2012-12-12,40.2,32.9,28.5,27.6,25.2,23.2,94,74,52,30.38,30.15,0,0,0,0.00
2012-12-13,41.5,33.5,26.3,28.3,24.6,21.7,88,71,51,30.42,30.21,0,0,0,0.00
2012-12-14,42.1,34.9,26.7,32.4,25.9,19.5,86,70,54,30.22,30.13,0,0,0,0.00
2012-12-15,41.1,36.4,30.7,32.1,30.4,28.2,94,79,69,30.26,30.01,0,0,0,0.00
2012-12-16,46.0,42.4,39.6,40.6,37.9,30.9,95,84,70,30.01,29.73,0,0,0,0.03
2012-12-17,43.9,41.9,40.1,42.6,40.9,39.3,98,96,94,29.74,29.52,0,0,0,0.60
2012-12-18,43.5,40.0,37.6,43.5,38.3,30.3,100,94,74,29.63,29.40,0,0,0,0.37
2012-12-19,39.1,35.7,30.0,33.1,29.9,24.9,92,79,65,30.14,29.63,0,0,0,0.00
2012-12-20,37.6,31.3,24.8,35.1,25.2,21.9,93,79,54,30.16,29.48,0,0,0,0.03
2012-12-21,39.8,37.1,32.7,37.8,35.6,32.2,98,95,87,29.47,29.18,0,0,0,0.55
2012-12-29,26.4,24.9,22.2,25.4,23.8,20.9,96,96,94,29.73,29.59,0,0,0,0.00
2012-12-30,25.1,22.5,18.8,22.2,18.9,14.2,96,86,75,30.20,29.73,0,0,0,0.00
2012-12-31,33.1,27.8,21.9,28.7,21.4,17.2,93,77,65,30.15,29.81,0,0,0,0.01
2013-1-1,32.2,21.6,4.3,28.7,16.6,0.0,91,81,69,30.01,29.78,0,0,0,0.00